CW4114 Weather Reports


time (UTC)temp
C
wind
direction
speed
KPH
gust
KPH
rain 1hr
cm
rain 24hr
cm
rain mn
cm
humidity
%
barometer
mb
20260905051220 17 86 0.0 0.0 0.00 0.08 0.00 97 1014.8
20260905050719 17 89 0.0 0.0 0.00 0.08 0.00 97 1014.7
20260905050222 17 89 0.0 0.0 0.00 0.08 0.00 97 1014.8
20260905045720 17 89 0.0 0.0 0.00 0.08 0.00 97 1014.9
20260905045216 17 89 0.0 0.0 0.00 0.08 0.00 97 1014.9
20260905044714 17 89 0.0 0.0 0.00 0.08 0.00 97 1014.8
20260905044214 17 89 0.0 0.0 0.00 0.08 0.00 97 1014.8
20260905043714 17 89 0.0 0.0 0.00 0.08 0.00 97 1014.8
20260905043215 17 89 0.0 1.6 0.00 0.08 0.00 97 1014.8
20260905042713 17 89 0.0 1.6 0.00 0.08 0.00 97 1014.8
20260905042446 17 89 0.0 1.6 0.00 0.08 0.00 97 1014.7
20260905041712 17 89 0.0 3.2 0.00 0.08 0.00 97 1014.8
20260905041214 17 89 0.0 3.2 0.00 0.08 0.00 97 1014.9
20260905040711 17 87 0.0 3.2 0.00 0.08 0.00 97 1014.9
20260905040213 17 90 1.6 3.2 0.00 0.08 0.00 97 1014.9
20260905035707 17 89 0.0 3.2 0.00 0.08 0.08 97 1014.9
20260905035439 17 138 0.0 0.0 0.00 0.08 0.08 97 1014.9
20260905034706 17 138 0.0 0.0 0.00 0.08 0.08 97 1014.9
20260905034206 17 138 0.0 0.0 0.00 0.08 0.08 97 1015.1
20260905033707 17 138 0.0 0.0 0.00 0.08 0.08 96 1015.2
20260905033206 17 138 0.0 0.0 0.00 0.08 0.08 96 1015.2
20260905032706 17 140 0.0 0.0 0.00 0.08 0.08 96 1015.1
20260905031705 17 142 0.0 0.0 0.00 0.08 0.08 96 1015.3
20260905031205 17 142 0.0 0.0 0.00 0.08 0.08 96 1015.2
20260905030704 17 142 0.0 0.0 0.00 0.08 0.08 96 1015.2
20260905030205 17 142 0.0 0.0 0.00 0.08 0.08 96 1015.3
20260905025707 17 142 0.0 0.0 0.00 0.08 0.08 96 1015.3
20260905025206 18 142 0.0 0.0 0.00 0.08 0.08 96 1015.2
20260905024705 18 142 0.0 0.0 0.00 0.08 0.08 96 1015.4
20260905024206 18 144 0.0 0.0 0.00 0.08 0.08 96 1015.3
20260905023705 18 144 0.0 1.6 0.00 0.08 0.08 96 1015.2
20260905023207 18 144 0.0 3.2 0.00 0.08 0.08 96 1015.2
20260905022934 18 141 0.0 3.2 0.00 0.08 0.08 96 1015.1
20260905022205 18 137 0.0 3.2 0.00 0.08 0.08 96 1015.2
20260905021935 18 140 0.0 4.8 0.00 0.08 0.08 96 1015.2
20260905021205 18 145 1.6 4.8 0.00 0.08 0.08 96 1015.1
20260905020204 18 100 3.2 6.4 0.00 0.08 0.08 95 1015.3
20260905015706 18 100 0.0 4.8 0.00 0.08 0.08 95 1015.2
20260905015207 18 62 3.2 6.4 0.00 0.08 0.08 95 1015.1
20260905014706 18 96 0.0 6.4 0.00 0.08 0.08 95 1015.1
20260905014204 18 75 3.2 6.4 0.00 0.08 0.08 95 1015.2
20260905013702 18 100 1.6 6.4 0.00 0.08 0.08 95 1015.2
20260905013204 18 62 3.2 6.4 0.00 0.08 0.08 95 1015.2
20260905012704 18 69 3.2 4.8 0.00 0.08 0.08 95 1015.2
20260905012203 18 83 0.0 3.2 0.00 0.08 0.08 95 1015.1
20260905011929 18 106 1.6 3.2 0.00 0.08 0.08 95 1015.1
20260905011434 18 71 1.6 3.2 0.00 0.08 0.08 94 1015.1
20260905010703 18 76 3.2 4.8 0.00 0.08 0.08 94 1014.9
20260905010206 18 72 0.0 4.8 0.00 0.08 0.08 94 1014.8
20260905005658 18 65 0.0 4.8 0.00 0.08 0.08 94 1014.8
20260905005200 18 62 1.6 4.8 0.00 0.08 0.08 93 1014.7
20260905004654 18 97 0.0 0.0 0.00 0.08 0.08 93 1014.7
20260905004156 19 97 0.0 0.0 0.00 0.08 0.08 93 1014.6
20260905003153 19 97 0.0 0.0 0.00 0.08 0.08 93 1014.6
20260905002653 19 97 0.0 0.0 0.00 0.08 0.08 93 1014.5
20260905002152 19 100 0.0 0.0 0.00 0.08 0.08 92 1014.4
20260905001651 19 99 0.0 1.6 0.00 0.08 0.08 92 1014.5
20260905001152 19 99 0.0 3.2 0.00 0.08 0.08 92 1014.4
20260905000650 19 82 0.0 3.2 0.00 0.08 0.08 92 1014.4
20260905000153 20 78 0.0 3.2 0.00 0.08 0.08 92 1014.4
20260904235647 20 65 1.6 3.2 0.00 0.08 0.08 92 1014.4
20260904235147 20 80 1.6 3.2 0.00 0.08 0.08 91 1014.3
20260904234646 20 76 1.6 3.2 0.00 0.08 0.08 91 1014.3
20260904234146 20 89 1.6 3.2 0.00 0.08 0.08 91 1014.3
20260904233645 20 89 0.0 3.2 0.00 0.08 0.08 91 1014.4
20260904233146 20 90 0.0 3.2 0.00 0.08 0.08 91 1014.3
20260904232645 20 90 0.0 3.2 0.00 0.08 0.08 91 1014.3
20260904232146 20 87 1.6 3.2 0.00 0.08 0.08 91 1014.1
20260904231646 20 69 1.6 3.2 0.00 0.08 0.08 92 1014.2
20260904231146 20 75 0.0 1.6 0.00 0.08 0.08 92 1014.2
20260904230642 20 134 0.0 4.8 0.00 0.08 0.08 92 1014.2
20260904230146 20 117 1.6 6.4 0.00 0.08 0.08 92 1014.0
20260904225642 20 114 1.6 6.4 0.00 0.08 0.08 92 1014.0
20260904225141 20 90 3.2 6.4 0.00 0.08 0.08 92 1014.0
20260904224905 20 79 4.8 6.4 0.00 0.08 0.08 92 1014.0
20260904224139 20 66 3.2 6.4 0.00 0.08 0.08 92 1014.1
20260904223639 20 117 3.2 6.4 0.00 0.08 0.08 92 1014.0
20260904223140 20 68 3.2 8.0 0.00 0.08 0.08 92 1014.0
20260904222638 20 68 4.8 8.0 0.00 0.08 0.08 92 1013.9
20260904222139 20 76 3.2 6.4 0.00 0.08 0.08 92 1013.9
20260904221905 20 83 3.2 6.4 0.00 0.08 0.08 92 1013.9
20260904221142 20 82 3.2 6.4 0.00 0.08 0.08 92 1014.0
20260904220636 20 113 3.2 8.0 0.00 0.08 0.08 92 1014.0
20260904220143 20 102 4.8 8.0 0.00 0.08 0.08 91 1014.1
20260904215558 20 103 3.2 8.0 0.00 0.08 0.08 91 1014.0
20260904215058 20 51 4.8 8.0 0.00 0.08 0.08 91 1014.0
20260904214559 20 80 3.2 6.4 0.00 0.08 0.08 90 1014.0
20260904214057 20 51 3.2 6.4 0.00 0.08 0.08 89 1014.0
20260904213558 20 97 3.2 9.7 0.00 0.08 0.08 89 1014.1
20260904213057 20 89 3.2 9.7 0.00 0.08 0.08 88 1013.9
20260904212556 20 95 4.8 8.0 0.00 0.08 0.08 86 1013.9
20260904212055 20 90 3.2 8.0 0.00 0.08 0.08 84 1013.9
20260904211556 21 89 4.8 8.0 0.00 0.08 0.08 82 1014.0
20260904211057 21 61 3.2 6.4 0.00 0.08 0.08 82 1014.0
20260904210556 21 78 3.2 0.0 0.00 0.08 0.08 82 1014.0
20260904205702 21 90 3.2 8.0 0.00 0.08 0.08 82 1013.9
20260904205202 21 111 3.2 8.0 0.00 0.08 0.08 81 1013.9
20260904204934 21 95 3.2 8.0 0.00 0.08 0.08 81 1013.9
20260904204203 21 138 1.6 8.0 0.00 0.08 0.08 83 1013.9
20260904203702 21 145 4.8 8.0 0.00 0.08 0.08 83 1014.0
20260904203202 21 104 4.8 9.7 0.00 0.08 0.08 83 1014.1
20260904202704 20 92 6.4 9.7 0.00 0.08 0.08 83 1014.0
20260904202202 20 89 3.2 9.7 0.00 0.08 0.08 83 1014.2
20260904201935 20 92 3.2 9.7 0.00 0.08 0.08 83 1014.1
20260904201600 21 179 4.8 9.7 0.00 0.08 0.08 85 1014.2
20260904200741 20 71 4.8 9.7 0.00 0.08 0.08 85 1014.1
20260904200228 20 90 4.8 9.7 0.00 0.08 0.08 85 1014.2
20260904195659 20 95 4.8 14.5 0.00 0.08 0.08 86 1014.1
20260904195525 20 110 3.2 17.7 0.00 0.08 0.08 90 1014.0
20260904195417 20 107 1.6 16.1 0.00 0.08 0.08 89 1014.1
20260904194158 20 110 6.4 19.3 0.00 0.08 0.08 91 1014.0
20260904193659 20 111 8.0 19.3 0.00 0.08 0.08 91 1014.0
20260904193157 20 89 9.7 19.3 0.00 0.08 0.08 92 1014.0
20260904192657 20 90 11.3 17.7 0.00 0.08 0.08 92 1014.0
20260904192155 20 102 9.7 17.7 0.00 0.08 0.08 92 1014.1
20260904191655 20 111 6.4 17.7 0.00 0.08 0.08 92 1014.2
20260904191156 20 103 8.0 17.7 0.00 0.08 0.08 92 1014.2
20260904190655 20 103 6.4 17.7 0.00 0.08 0.08 92 1014.2
20260904185635 20 103 8.0 16.1 0.00 0.08 0.08 92 1014.2
20260904185135 20 87 6.4 16.1 0.00 0.08 0.08 91 1014.2
20260904184636 20 118 6.4 16.1 0.00 0.08 0.08 91 1014.3
20260904184134 20 99 6.4 14.5 0.00 0.08 0.08 90 1014.3
20260904183637 20 113 8.0 14.5 0.00 0.08 0.08 90 1014.3
20260904183407 20 87 8.0 14.5 0.00 0.08 0.08 90 1014.3
20260904182635 20 92 4.8 9.7 0.00 0.08 0.08 90 1014.5
20260904182134 20 126 6.4 11.3 0.00 0.08 0.08 90 1014.5
20260904181634 19 95 3.2 11.3 0.00 0.08 0.08 90 1014.6
20260904181132 20 82 4.8 11.3 0.00 0.08 0.08 90 1014.7
20260904180906 20 145 4.8 11.3 0.00 0.08 0.08 90 1014.4
20260904175504 20 68 4.8 9.7 0.00 0.08 0.08 89 1014.5
20260904175007 20 99 4.8 11.3 0.00 0.08 0.08 89 1014.6
20260904174503 20 89 8.0 11.3 0.00 0.08 0.08 88 1014.6
20260904174005 20 110 4.8 11.3 0.00 0.08 0.08 88 1014.5
20260904173004 21 97 6.4 11.3 0.00 0.08 0.08 87 1014.4
20260904172502 21 121 4.8 16.1 0.00 0.08 0.08 88 1014.2
20260904172006 20 93 4.8 16.1 0.00 0.08 0.08 89 1014.1
20260904171503 20 85 8.0 16.1 0.00 0.08 0.08 89 1014.0
20260904171003 20 113 6.4 16.1 0.00 0.08 0.08 92 1014.1
20260904170502 19 69 8.0 16.1 0.00 0.08 0.08 92 1014.2
20260904170003 19 123 6.4 14.5 0.00 0.08 0.08 92 1014.3
20260904165503 19 103 6.4 14.5 0.00 0.08 0.08 92 1014.5
20260904165235 19 128 6.4 11.3 0.00 0.08 0.08 92 1014.5
20260904164507 19 86 4.8 9.7 0.00 0.08 0.08 92 1014.6
20260904164003 19 87 6.4 9.7 0.00 0.08 0.08 92 1014.7
20260904163504 19 63 3.2 9.7 0.00 0.08 0.08 92 1014.7
20260904163231 19 66 4.8 9.7 0.00 0.08 0.08 92 1014.7
20260904162502 19 61 4.8 8.0 0.00 0.08 0.08 93 1014.6
20260904162003 19 62 4.8 8.0 0.00 0.08 0.08 92 1014.7
20260904161503 19 90 4.8 8.0 0.00 0.08 0.08 92 1014.7
20260904161002 19 69 4.8 8.0 0.00 0.08 0.08 92 1014.8
20260904160502 19 79 4.8 8.0 0.00 0.08 0.08 92 1014.9
20260904160003 19 89 4.8 8.0 0.00 0.08 0.08 92 1014.8
20260904155502 19 66 4.8 8.0 0.00 0.08 0.08 92 1014.9
20260904155008 19 92 6.4 8.0 0.00 0.08 0.08 92 1015.1
20260904154502 19 72 6.4 11.3 0.00 0.08 0.08 92 1015.1
20260904154002 19 63 3.2 11.3 0.00 0.08 0.08 92 1015.1
20260904153501 19 48 6.4 11.3 0.00 0.08 0.08 90 1014.8
20260904153002 19 85 6.4 11.3 0.00 0.08 0.08 89 1015.2
20260904152733 20 65 3.2 6.4 0.00 0.08 0.08 89 1015.2
20260904152231 19 89 1.6 6.4 0.00 0.08 0.08 90 1015.1
20260904151502 19 148 1.6 6.4 0.00 0.08 0.08 90 1014.9
20260904151000 19 118 0.0 4.8 0.00 0.08 0.08 92 1014.9
20260904150729 19 166 1.6 3.2 0.00 0.08 0.08 92 1015.2
20260904150230 19 159 1.6 3.2 0.00 0.08 0.08 92 1015.2
20260904145500 19 257 0.0 3.2 0.00 0.08 0.08 93 1015.3
20260904145001 19 233 0.0 6.4 0.00 0.08 0.08 93 1015.2
20260904144500 18 259 1.6 6.4 0.00 0.08 0.08 94 1015.3
20260904144002 18 203 0.0 4.8 0.00 0.08 0.08 94 1015.3
20260904143601 18 204 3.2 6.4 0.00 0.08 0.08 95 1015.1
20260904143010 18 189 3.2 6.4 0.00 0.08 0.08 95 1015.1
20260904142502 18 224 3.2 6.4 0.00 0.08 0.08 96 1014.9
20260904141958 18 200 3.2 4.8 0.00 0.08 0.08 96 1014.9
20260904141515 18 204 1.6 3.2 0.00 0.08 0.08 96 1014.9
20260904140957 18 92 0.0 6.4 0.00 0.08 0.08 96 1014.8
20260904140458 18 164 1.6 6.4 0.00 0.08 0.08 96 1014.7
20260904135959 18 206 0.0 6.4 0.00 0.08 0.08 96 1014.5
20260904135454 18 186 1.6 6.4 0.00 0.08 0.08 97 1014.4
20260904135221 18 197 1.6 8.0 0.00 0.08 0.08 97 1014.6
20260904134455 17 154 4.8 8.0 0.00 0.08 0.08 97 1014.5
20260904134003 17 145 1.6 9.7 0.00 0.08 0.08 97 1014.2
20260904133455 17 151 3.2 9.7 0.00 0.08 0.08 97 1014.1
20260904133007 17 161 3.2 6.4 0.00 0.08 0.08 97 1014.1
20260904132454 17 157 3.2 6.4 0.00 0.08 0.08 97 1014.3
20260904131951 17 140 1.6 3.2 0.00 0.08 0.08 97 1014.3
20260904131714 17 92 0.0 1.6 0.00 0.08 0.08 97 1014.5
20260904130952 17 68 0.0 0.0 0.00 0.08 0.08 97 1014.5
20260904130451 17 63 0.0 4.8 0.00 0.08 0.08 97 1014.8
20260904125947 17 63 0.0 4.8 0.03 0.05 0.08 97 1014.6
20260904125447 17 66 3.2 4.8 0.03 0.05 0.08 97 1014.2
20260904124943 17 158 0.0 4.8 0.05 0.05 0.08 97 1014.1
20260904124446 17 178 1.6 4.8 0.08 0.05 0.08 97 1014.1
20260904123945 17 168 1.6 4.8 0.08 0.05 0.08 97 1014.1
20260904123443 17 178 0.0 3.2 0.08 0.05 0.08 97 1013.9
20260904122943 16 175 0.0 3.2 0.08 0.05 0.08 97 1014.0
20260904122442 16 210 1.6 3.2 0.08 0.05 0.08 97 1014.1
20260904122213 16 210 0.0 4.8 0.08 0.05 0.08 97 1014.1
20260904120942 16 188 3.2 6.4 0.08 0.05 0.08 96 1014.2
20260904120440 16 175 4.8 6.4 0.08 0.05 0.08 96 1014.4
20260904115942 16 212 0.0 4.8 0.05 0.00 0.05 96 1014.7
20260904115441 16 251 3.2 4.8 0.05 0.00 0.05 97 1014.8
20260904114941 16 264 3.2 6.4 0.03 0.00 0.00 97 1014.6
20260904114440 16 264 3.2 6.4 0.00 0.00 0.00 97 1014.7
20260904113940 16 285 3.2 6.4 0.00 0.00 0.00 97 1014.7
20260904113441 16 282 1.6 4.8 0.00 0.00 0.00 97 1014.6
20260904112941 15 310 1.6 3.2 0.00 0.00 0.00 97 1014.4
20260904112441 15 282 1.6 3.2 0.00 0.00 0.00 97 1014.2
20260904111941 15 303 0.0 3.2 0.00 0.00 0.00 97 1014.2
20260904111436 15 307 1.6 3.2 0.00 0.00 0.00 97 1014.2
20260904110936 15 302 1.6 3.2 0.00 0.00 0.00 97 1014.2
20260904105934 14 285 0.0 1.6 0.00 0.00 0.00 96 1014.1
20260904105434 14 286 0.0 1.6 0.00 0.00 0.00 96 1014.1
20260904104934 14 248 0.0 0.0 0.00 0.00 0.00 96 1013.8
20260904104435 14 248 0.0 1.6 0.00 0.00 0.00 96 1013.7
20260904103934 14 248 0.0 3.2 0.00 0.00 0.00 96 1013.8
20260904103434 14 247 1.6 3.2 0.00 0.00 0.00 96 1013.8
20260904102933 14 247 1.6 4.8 0.00 0.00 0.00 96 1013.9
20260904102433 14 250 1.6 4.8 0.00 0.00 0.00 96 1013.9
20260904101933 14 245 1.6 4.8 0.00 0.00 0.00 96 1014.1
20260904101433 14 257 1.6 4.8 0.00 0.00 0.00 96 1014.0
20260904101205 14 250 1.6 3.2 0.00 0.00 0.00 96 1013.8
20260904100432 14 257 1.6 3.2 0.00 0.00 0.00 96 1013.9
20260904095931 14 261 1.6 3.2 0.00 0.00 0.00 96 1013.9
20260904095431 14 258 1.6 3.2 0.00 0.00 0.00 96 1013.7
20260904094932 14 251 1.6 4.8 0.00 0.00 0.00 95 1013.8
20260904094430 14 262 3.2 4.8 0.00 0.00 0.00 95 1013.7
20260904093931 14 243 0.0 3.2 0.00 0.00 0.00 95 1013.4
20260904093430 14 248 0.0 3.2 0.00 0.00 0.00 95 1013.6
20260904093204 14 250 1.6 4.8 0.00 0.00 0.00 95 1013.8
20260904092431 14 267 1.6 4.8 0.00 0.00 0.00 95 1013.7
20260904091930 14 261 3.2 4.8 0.00 0.00 0.00 95 1013.7
20260904091431 14 262 0.0 3.2 0.00 0.00 0.00 95 1013.4
20260904090931 14 265 0.0 3.2 0.00 0.00 0.00 95 1013.6
20260904090430 14 262 1.6 3.2 0.00 0.00 0.00 95 1013.7
20260904085931 14 272 1.6 3.2 0.00 0.00 0.00 95 1013.5
20260904085431 14 259 1.6 3.2 0.00 0.00 0.00 95 1013.3
20260904084930 14 264 0.0 3.2 0.00 0.00 0.00 95 1013.3
20260904084433 14 264 1.6 3.2 0.00 0.00 0.00 95 1013.3
20260904083931 14 264 0.0 1.6 0.00 0.00 0.00 95 1013.3
20260904083431 14 265 1.6 3.2 0.00 0.00 0.00 95 1013.6
20260904082930 14 257 1.6 3.2 0.00 0.00 0.00 95 1013.6
20260904082657 14 259 1.6 3.2 0.00 0.00 0.00 95 1013.5
20260904081929 15 258 0.0 1.6 0.00 0.00 0.00 94 1013.4
20260904081428 15 258 0.0 1.6 0.00 0.00 0.00 94 1013.3
20260904081152 15 261 0.0 1.6 0.00 0.00 0.00 94 1013.5
20260904080428 15 262 1.6 1.6 0.00 0.00 0.00 94 1013.5
20260904075928 15 272 0.0 3.2 0.00 0.00 0.00 94 1013.7
20260904075425 15 272 1.6 3.2 0.00 0.00 0.00 94 1013.9
20260904074926 15 274 1.6 3.2 0.00 0.00 0.00 94 1014.0
20260904074424 15 251 1.6 1.6 0.00 0.00 0.00 94 1013.7
20260904073926 15 251 0.0 1.6 0.00 0.00 0.00 93 1013.4
20260904073427 15 248 0.0 1.6 0.00 0.00 0.00 93 1013.3
20260904072925 15 276 0.0 1.6 0.00 0.00 0.00 93 1013.4
20260904072421 15 276 1.6 1.6 0.00 0.00 0.00 93 1013.5
20260904071921 15 289 0.0 1.6 0.00 0.00 0.00 93 1013.3
20260904071420 16 289 0.0 1.6 0.00 0.00 0.00 93 1013.4
20260904070919 16 21 0.0 0.0 0.00 0.00 0.00 93 1013.4
20260904070420 16 25 0.0 0.0 0.00 0.00 0.00 93 1013.5
20260904065918 16 303 0.0 0.0 0.00 0.00 0.00 93 1013.5
20260904065644 16 286 0.0 1.6 0.00 0.00 0.00 93 1013.7
20260904065137 16 286 0.0 1.6 0.00 0.00 0.00 93 1013.8
20260904064413 16 48 0.0 4.8 0.00 0.00 0.00 93 1013.8
20260904063913 16 52 1.6 4.8 0.00 0.00 0.00 93 1014.0
20260904063414 16 51 1.6 4.8 0.00 0.00 0.00 93 1014.0
20260904063141 16 37 3.2 4.8 0.00 0.00 0.00 93 1014.1
20260904062413 16 1 1.6 3.2 0.00 0.00 0.00 92 1014.1
20260904061136 16 236 3.2 4.8 0.00 0.00 0.00 92 1013.8
20260904060407 16 250 3.2 4.8 0.00 0.00 0.00 92 1014.0
20260904055906 16 220 1.6 6.4 0.00 0.00 0.00 92 1014.1
20260904055407 16 237 1.6 6.4 0.00 0.00 0.00 92 1014.0
20260904054904 16 255 1.6 4.8 0.00 0.00 0.00 92 1014.2
20260904054635 16 254 3.2 4.8 0.00 0.00 0.00 92 1014.1
20260904053905 16 261 3.2 6.4 0.00 0.00 0.00 92 1014.2
20260904053406 16 262 3.2 6.4 0.00 0.00 0.00 91 1014.2
20260904052911 16 254 3.2 4.8 0.00 0.00 0.00 91 1014.1
20260904052406 16 259 1.6 4.8 0.00 0.00 0.00 91 1014.1
20260904051903 16 237 1.6 4.8 0.00 0.00 0.00 91 1014.2
20260904051403 16 271 3.2 6.4 0.00 0.00 0.00 91 1014.3